Tracking 30009 objects as of 7-Dec-2024
HD Live streaming from Space Station
objects crossing your sky now

STARLINK-30762

Track STARLINK-30762 now!
10-day predictions
STARLINK-30762 is classified as:


NORAD ID: 58197
Int'l Code: 2023-167Y
Perigee: 565.3 km
Apogee: 567.2 km
Inclination: 43.0 °
Period: 95.8 minutes
Semi major axis: 6937 km
RCS: Unknown
Launch date: October 30, 2023
Source: United States (US)
Launch site: AIR FORCE EASTERN TEST RANGE (AFETR)
Your satellite tracking list
Your tracking list is empty




NASA's NSSDC Master Catalog

Two Line Element Set (TLE):
1 58197U 23167Y   24341.71228630  .00001617  00000-0  13477-3 0  9992
2 58197  43.0033 114.4447 0001360 272.5300  87.5386 15.02534989 62066
Source of the keplerian elements: AFSPC